Wind_Speed
40 39 39 40 39 39 39 38 37 34 33 29 21 16 9 5 1 3 1 4 8 2 11 18 27 36 33 35 23 10 10 10 13 14 16 17 16 16 17 17 17 18 18 17 16 18 21
40 40 39 41 39 39 38 36 34 33 31 26 21 14 2 8 3 4 5 11 8 6 5 16 24 33 35 19 20 19 9 18 14 15 16 17 16 16 14 16 15 13 13 15 15 17 21
39 39 39 42 38 38 37 37 34 30 29 28 20 15 10 6 7 5 11 14 9 9 6 8 21 26 36 21 10 17 15 15 21 16 15 16 15 15 14 11 13 13 13 14 15 16 21
39 38 37 39 38 39 38 38 36 30 28 27 25 14 9 7 7 8 17 18 13 12 10 9 25 24 27 23 16 18 22 23 19 17 17 16 15 14 12 11 9 9 11 10 10 13 21
39 37 36 37 38 41 43 40 37 33 29 27 25 14 10 9 9 14 16 13 17 10 17 16 28 26 23 17 18 9 17 17 20 16 14 14 13 12 10 8 8 8 8 10 11 13 19
40 38 35 34 37 42 46 45 38 37 30 33 26 18 16 13 10 16 15 16 19 13 25 23 21 20 26 22 13 12 16 17 21 14 12 12 11 9 9 8 3 5 7 11 10 13 21
40 39 36 33 34 39 45 48 45 38 42 35 33 22 19 16 13 19 19 21 26 24 31 23 18 23 25 15 14 11 15 16 17 12 11 9 8 8 8 8 8 8 7 11 10 18 24
41 39 37 34 33 34 41 46 48 37 43 40 31 25 21 18 20 21 21 18 22 27 27 26 20 21 15 13 11 12 15 13 12 10 9 7 7 7 7 6 5 5 7 10 12 10 21
43 40 37 37 34 32 35 40 44 36 38 33 28 23 21 19 21 23 17 22 22 24 33 23 17 15 12 9 9 8 11 11 10 9 8 7 6 5 3 3 5 6 8 7 11 18 17
45 41 38 35 36 33 32 34 39 35 32 30 27 22 18 18 24 21 19 20 15 16 15 12 9 10 13 14 10 11 11 9 6 5 6 3 4 4 3 4 7 6 6 10 12 13 6
47 43 41 35 34 34 30 30 33 34 26 30 22 20 19 18 19 22 20 13 11 7 5 6 10 8 9 10 10 8 7 8 6 6 6 4 2 1 3 4 6 4 9 14 14 14 15
49 45 43 39 32 33 30 28 30 30 29 21 22 20 17 17 18 17 14 9 7 4 6 6 9 9 10 7 8 7 6 7 7 5 5 1 2 3 3 5 5 8 8 10 3 3 5
50 47 43 42 33 31 29 26 26 26 26 30 21 17 14 8 9 8 7 6 4 10 4 6 10 8 10 9 10 9 8 6 5 3 6 5 4 4 3 3 1 6 8 3 4 4 2
49 46 44 43 36 31 28 24 24 23 19 26 27 21 14 10 4 3 7 7 14 8 11 11 13 12 12 7 9 9 7 7 8 4 5 4 2 2 3 3 2 5 3 3 4 3 8
47 46 44 41 39 32 29 22 21 20 15 20 24 27 27 22 13 7 7 25 9 11 12 11 9 10 7 8 6 6 9 8 7 6 3 4 0 1 2 4 4 3 4 8 6 9 5
43 47 44 42 40 33 28 24 19 19 13 13 20 21 26 24 19 16 20 23 14 13 8 7 5 6 2 3 4 3 6 7 8 9 6 3 3 1 2 5 5 8 10 3 2 3 3
40 45 45 40 39 36 27 24 20 18 12 10 14 18 18 17 15 10 24 21 14 10 8 7 9 6 6 6 5 4 4 6 8 7 6 5 1 3 6 4 7 8 3 4 5 4 3
37 42 44 41 38 36 31 23 21 17 13 8 7 12 14 13 12 16 19 16 13 10 9 7 7 7 6 4 6 4 5 4 3 4 5 5 4 6 4 6 6 8 5 11 5 4 5
33 38 42 40 36 36 33 25 21 19 13 7 6 11 10 11 8 13 13 13 12 9 7 6 4 5 5 4 2 3 3 4 6 7 5 7 4 6 3 3 7 10 15 6 11 8 8
32 35 40 40 34 36 33 29 21 21 14 9 1 4 8 9 8 6 9 10 10 8 7 6 6 6 5 6 4 4 4 3 4 5 5 6 7 7 7 7 11 9 9 5 10 6 5
31 34 35 40 36 34 33 28 22 19 18 12 5 3 4 6 6 5 2 5 6 6 6 5 5 5 5 4 3 4 5 3 4 6 6 7 8 11 13 15 16 14 11 9 13 9 8
30 32 33 36 38 33 33 28 24 17 17 15 7 1 3 6 5 4 5 3 3 3 4 4 4 5 6 7 6 6 6 5 3 7 8 9 8 19 18 8 12 18 15 14 13 11 15
29 30 32 33 37 35 32 27 24 20 14 13 12 5 0 5 8 6 7 6 4 2 2 1 1 2 3 4 6 8 9 9 10 9 8 8 10 15 7 12 16 18 8 17 13 10 9
27 28 29 31 32 36 31 31 23 21 17 12 10 10 4 4 9 10 8 8 8 7 6 5 4 5 6 7 9 11 12 13 14 14 13 12 11 10 11 11 3 6 7 9 15 14 14
27 26 27 29 29 32 33 29 25 20 17 14 10 8 7 7 8 11 13 12 11 11 11 11 11 10 11 11 13 10 11 12 12 13 14 13 12 6 4 6 21 20 14 15 14 13 13
29 28 27 27 27 27 30 29 28 20 17 14 12 9 8 8 6 10 14 15 16 15 15 15 16 16 15 15 11 7 5 6 5 6 13 15 14 12 9 5 5 7 6 7 8 13 12
30 31 29 29 27 26 26 28 26 25 17 15 14 12 10 10 7 10 12 15 18 19 20 18 19 18 17 17 16 11 10 12 6 6 6 11 12 19 16 11 11 18 12 8 5 5 7
32 30 29 29 27 26 24 25 24 25 21 17 15 14 14 12 13 11 10 12 14 17 18 16 17 18 14 12 9 10 9 10 10 13 11 10 9 8 8 8 8 5 4 6 8 13 17
32 31 29 28 26 24 22 25 23 23 24 19 17 17 16 15 15 15 15 17 16 16 16 17 17 17 11 10 9 8 11 16 21 12 18 12 11 8 9 9 13 16 24 27 23 21 16
Wind_Direction
9 9 6 10 11 11 14 10 8 17 16 16 12 70 89 102 158 317 83 113 89 62 200 194 192 191 199 208 216 175 194 182 197 197 197 202 201 203 210 218 229 240 250 258 262 267 269
7 13 9 9 13 13 12 10 10 11 16 15 10 354 3 119 137 25 99 108 65 60 156 202 189 189 195 183 216 203 165 188 208 198 196 202 206 211 216 224 230 241 250 260 267 271 277
9 13 12 9 16 16 15 12 12 9 11 14 8 0 328 63 112 82 127 113 46 70 94 150 182 185 199 194 202 215 218 206 182 196 196 198 200 203 213 222 236 244 255 266 269 273 273
12 14 16 10 18 18 16 16 16 12 12 11 14 7 350 344 51 92 121 91 75 63 100 124 174 169 182 188 184 172 208 202 178 195 182 182 189 199 210 221 235 251 266 261 261 274 278
16 14 16 12 15 20 17 18 16 18 17 20 14 19 19 42 68 109 109 84 95 82 132 103 152 145 151 165 174 170 176 190 172 172 179 180 188 198 207 223 252 255 255 267 282 274 278
17 15 14 17 12 19 18 18 14 21 21 25 25 31 46 73 85 101 106 92 111 107 82 92 109 142 131 124 95 104 139 165 168 161 167 179 188 198 210 217 216 228 261 278 277 282 279
20 17 15 15 15 15 16 20 17 21 34 38 44 56 64 85 95 100 111 104 106 84 79 82 94 98 115 94 84 117 127 145 161 170 184 179 174 193 209 222 235 257 274 283 292 289 287
19 20 17 16 14 15 15 19 20 26 36 44 48 58 68 91 92 93 101 111 107 110 87 88 100 99 95 100 87 93 122 126 144 163 168 161 176 203 215 229 243 258 288 297 295 283 301
18 19 19 17 16 16 18 19 24 30 43 47 56 71 85 90 100 110 110 107 99 99 88 94 85 96 81 86 104 106 120 120 130 145 159 166 175 198 197 215 259 285 288 288 299 308 315
16 19 18 17 17 18 24 22 25 34 48 58 61 65 75 94 102 113 120 112 90 80 79 63 56 53 74 92 92 110 111 111 115 116 125 127 167 189 233 267 285 295 268 302 311 326 310
17 16 19 16 18 18 27 30 27 33 56 63 65 67 82 87 89 98 104 98 67 62 73 30 54 83 82 85 103 102 89 96 89 88 103 114 98 336 298 294 299 284 303 304 299 293 302
16 16 17 16 20 19 22 31 31 32 54 61 66 71 78 84 91 101 82 57 32 56 64 45 72 93 80 74 94 93 78 83 86 77 85 107 314 321 306 296 300 292 313 312 293 271 241
14 15 16 17 17 24 20 29 32 30 49 55 57 70 83 96 98 85 56 33 61 62 82 76 88 76 83 91 86 76 74 58 57 73 53 84 70 67 55 59 359 338 341 281 212 216 303
13 13 16 16 18 25 26 25 30 36 40 51 49 59 72 75 61 26 51 60 67 79 95 98 83 78 75 73 71 50 54 59 50 81 62 62 79 53 45 60 297 306 291 302 298 297 318
12 12 14 16 18 20 27 29 34 37 45 64 58 63 65 60 64 52 91 97 103 94 97 89 71 63 61 70 80 70 57 39 35 39 88 56 156 46 355 346 336 310 276 300 265 282 266
8 11 11 16 17 16 25 29 37 38 52 73 72 65 70 68 67 90 108 97 101 100 83 71 79 69 95 89 69 58 60 43 65 56 62 49 316 320 304 295 300 323 265 266 238 283 277
4 9 10 13 17 15 23 30 33 44 52 69 82 76 77 80 80 88 86 94 92 86 86 75 70 64 62 69 63 51 68 68 40 15 4 1 278 272 289 265 304 341 291 228 245 239 292
3 5 10 11 15 18 15 31 27 40 52 57 92 95 89 91 98 83 86 88 85 81 75 70 61 59 56 55 52 61 59 64 24 359 352 340 278 282 276 301 327 318 298 241 235 186 230
1 4 5 11 13 15 16 18 30 32 47 66 107 106 99 103 90 92 94 90 81 72 69 66 51 42 31 26 56 55 40 24 13 8 353 348 330 307 271 318 277 276 314 256 226 238 234
354 1 3 7 11 12 14 13 23 30 39 65 130 145 124 111 103 98 92 97 98 92 76 64 64 58 47 37 35 13 1 358 1 359 331 312 288 271 270 296 292 299 314 284 211 217 226
347 352 1 1 9 9 8 16 12 25 31 48 88 162 152 176 161 132 128 116 103 102 77 67 52 30 22 17 8 12 352 319 303 325 329 308 289 294 296 283 276 284 291 291 246 249 229
339 344 354 359 0 7 6 6 12 16 25 35 62 90 218 193 194 177 161 171 130 105 105 93 62 34 17 12 7 351 343 336 299 319 324 313 298 317 321 287 271 279 270 258 259 257 252
331 339 344 354 355 359 5 2 4 6 16 24 30 43 217 236 218 221 203 193 196 187 191 213 277 335 349 335 328 320 310 300 291 292 297 295 305 322 287 310 302 288 261 237 243 257 256
322 331 337 344 351 350 355 2 355 4 1 9 12 17 344 268 245 231 241 229 219 221 231 236 257 269 269 284 288 293 288 282 276 273 274 275 293 304 289 316 269 293 286 246 247 258 258
314 321 327 334 343 345 343 352 355 349 1 354 356 353 355 316 263 249 242 247 255 256 255 262 262 265 271 280 298 293 271 270 262 255 257 253 262 271 257 275 286 287 272 255 257 266 269
306 312 318 325 331 338 335 339 348 341 343 348 348 335 329 330 316 269 259 250 252 260 266 271 275 276 279 287 294 274 288 270 260 262 234 240 241 239 250 243 250 242 277 287 280 282 276
299 304 310 316 321 327 327 328 336 340 328 335 337 335 326 305 296 306 289 265 263 263 267 275 278 280 280 281 277 271 260 260 268 253 257 246 255 244 254 253 272 257 273 270 221 241 286
292 297 304 309 313 317 317 317 326 332 328 319 325 326 322 315 299 287 283 290 280 275 272 277 286 281 271 260 259 259 259 258 261 260 272 260 269 252 234 238 280 242 265 271 263 280 286
285 290 295 300 301 305 307 305 313 322 331 315 313 314 313 311 305 296 290 279 279 282 274 274 269 272 261 259 256 267 265 277 280 280 280 264 244 263 243 264 288 281 292 292 284 286 281
Height
3101 3094 3087 3078 3068 3061 3053 3044 3034 3026 3021 3015 3012 3006 3005 3006 3007 3009 3010 3012 3013 3012 3014 3020 3026 3034 3041 3045 3048 3054 3059 3062 3067 3071 3075 3079 3083 3087 3091 3093 3095 3096 3098 3100 3101 3101 3101
3101 3095 3088 3079 3069 3062 3054 3045 3036 3027 3021 3018 3014 3012 3008 3004 3007 3009 3010 3013 3015 3015 3015 3019 3024 3031 3038 3041 3045 3053 3058 3062 3066 3070 3073 3077 3081 3085 3088 3090 3093 3094 3095 3096 3098 3098 3097
3101 3095 3089 3081 3071 3063 3055 3046 3037 3028 3021 3017 3015 3012 3011 3009 3008 3010 3012 3015 3015 3017 3018 3018 3025 3031 3037 3044 3047 3054 3058 3061 3064 3069 3072 3075 3079 3082 3085 3087 3089 3091 3093 3093 3094 3094 3093
3102 3095 3089 3083 3074 3065 3057 3048 3038 3030 3022 3016 3013 3011 3009 3010 3013 3012 3014 3017 3018 3019 3019 3020 3025 3031 3038 3045 3049 3054 3057 3061 3063 3067 3071 3074 3078 3080 3083 3085 3087 3089 3091 3091 3090 3090 3088
3103 3096 3089 3084 3077 3068 3060 3050 3041 3031 3022 3017 3013 3010 3010 3013 3016 3016 3017 3018 3021 3020 3020 3023 3027 3034 3041 3046 3048 3052 3055 3060 3064 3068 3071 3073 3077 3079 3082 3083 3085 3086 3087 3088 3087 3085 3082
3104 3098 3091 3085 3080 3072 3064 3054 3044 3034 3023 3019 3014 3013 3014 3017 3020 3021 3022 3024 3024 3027 3028 3028 3033 3040 3042 3047 3050 3052 3056 3060 3064 3068 3072 3074 3076 3078 3079 3081 3084 3084 3085 3085 3084 3081 3077
3106 3100 3093 3087 3082 3076 3068 3059 3049 3040 3029 3023 3019 3018 3019 3021 3024 3027 3029 3029 3033 3035 3034 3036 3039 3042 3044 3051 3052 3055 3058 3061 3065 3069 3071 3073 3076 3076 3078 3079 3081 3082 3083 3083 3081 3078 3074
3109 3102 3096 3089 3083 3078 3072 3064 3055 3046 3037 3030 3026 3025 3027 3026 3030 3034 3036 3036 3035 3039 3040 3044 3047 3049 3053 3055 3057 3059 3061 3065 3066 3068 3071 3075 3074 3075 3076 3077 3079 3080 3081 3081 3079 3076 3073
3113 3105 3098 3092 3085 3079 3075 3068 3062 3054 3047 3040 3036 3032 3032 3033 3034 3037 3039 3041 3042 3044 3044 3051 3053 3056 3058 3059 3060 3061 3063 3065 3067 3069 3070 3072 3073 3074 3075 3076 3078 3079 3079 3079 3078 3073 3070
3115 3108 3101 3094 3088 3082 3077 3071 3068 3061 3054 3049 3046 3042 3040 3040 3041 3041 3044 3045 3046 3047 3050 3059 3059 3061 3062 3062 3063 3063 3065 3067 3068 3070 3070 3072 3072 3074 3075 3076 3077 3078 3077 3076 3074 3073 3074
3118 3111 3104 3097 3090 3085 3080 3075 3071 3067 3061 3057 3054 3052 3050 3048 3048 3049 3051 3050 3050 3051 3055 3065 3063 3064 3064 3065 3067 3067 3067 3068 3069 3070 3072 3073 3073 3074 3074 3076 3076 3077 3074 3073 3072 3072 3072
3122 3114 3106 3099 3092 3087 3083 3079 3075 3070 3066 3063 3061 3059 3057 3056 3054 3054 3054 3053 3053 3055 3065 3067 3066 3067 3067 3067 3068 3068 3069 3070 3070 3070 3071 3072 3072 3073 3074 3075 3074 3074 3072 3070 3070 3070 3071
3126 3117 3110 3102 3095 3089 3085 3082 3078 3074 3071 3067 3065 3063 3062 3062 3061 3059 3057 3057 3057 3059 3070 3072 3071 3070 3069 3070 3070 3071 3071 3071 3072 3073 3072 3072 3074 3073 3074 3074 3073 3072 3072 3072 3070 3068 3062
3130 3121 3114 3106 3099 3092 3087 3085 3081 3078 3074 3071 3068 3066 3065 3063 3062 3061 3060 3060 3060 3069 3069 3072 3072 3073 3073 3073 3073 3073 3073 3073 3073 3072 3073 3074 3075 3074 3074 3074 3074 3073 3074 3072 3066 3061 3060
3134 3126 3117 3110 3103 3096 3090 3086 3085 3082 3078 3075 3072 3069 3066 3066 3064 3064 3064 3062 3069 3071 3073 3074 3074 3076 3075 3075 3075 3075 3074 3074 3074 3073 3075 3074 3075 3074 3073 3072 3074 3072 3071 3070 3067 3063 3062
3137 3129 3121 3113 3107 3100 3094 3090 3086 3085 3082 3080 3076 3074 3071 3071 3072 3071 3070 3066 3073 3075 3076 3076 3076 3076 3077 3077 3077 3075 3076 3077 3075 3075 3074 3075 3074 3072 3072 3071 3070 3069 3069 3068 3066 3062 3056
3139 3132 3125 3117 3110 3104 3098 3093 3088 3085 3085 3083 3081 3078 3078 3076 3077 3079 3073 3075 3078 3078 3078 3078 3079 3079 3079 3078 3078 3078 3080 3079 3076 3076 3075 3074 3075 3073 3071 3069 3068 3067 3065 3064 3065 3063 3058
3140 3134 3127 3120 3113 3107 3102 3096 3091 3087 3085 3085 3083 3082 3081 3081 3080 3078 3079 3080 3082 3082 3082 3082 3082 3081 3080 3080 3079 3079 3080 3079 3079 3077 3076 3075 3073 3070 3069 3067 3066 3064 3063 3062 3062 3061 3059
3140 3135 3129 3122 3116 3110 3105 3100 3095 3090 3087 3086 3085 3084 3084 3083 3084 3082 3081 3082 3083 3083 3083 3083 3083 3084 3083 3082 3082 3080 3080 3080 3078 3077 3076 3075 3073 3070 3067 3068 3065 3063 3060 3058 3059 3058 3055
3140 3135 3129 3124 3118 3112 3107 3103 3098 3093 3089 3087 3087 3086 3086 3085 3086 3086 3084 3084 3083 3084 3085 3085 3085 3084 3084 3083 3082 3081 3079 3079 3078 3077 3075 3074 3071 3070 3069 3066 3065 3062 3060 3057 3056 3055 3051
3140 3135 3130 3124 3120 3115 3108 3104 3099 3095 3091 3089 3087 3089 3087 3087 3086 3086 3086 3086 3085 3085 3085 3086 3085 3084 3084 3082 3081 3081 3079 3078 3077 3076 3074 3073 3069 3067 3064 3061 3060 3058 3056 3054 3052 3050 3049
3138 3134 3130 3125 3119 3115 3110 3105 3101 3096 3093 3091 3088 3088 3088 3087 3087 3087 3087 3088 3087 3086 3085 3084 3084 3084 3084 3085 3084 3082 3080 3078 3077 3076 3074 3073 3070 3065 3059 3057 3055 3052 3050 3049 3047 3045 3042
3136 3132 3128 3124 3120 3115 3111 3105 3101 3098 3094 3091 3089 3087 3088 3088 3087 3087 3087 3087 3087 3087 3086 3086 3086 3084 3083 3083 3082 3081 3079 3078 3076 3075 3073 3071 3069 3066 3059 3056 3053 3048 3043 3044 3043 3042 3041
3132 3130 3126 3122 3118 3115 3111 3107 3101 3099 3096 3092 3089 3087 3086 3086 3085 3085 3086 3087 3085 3085 3084 3083 3083 3083 3083 3080 3079 3077 3075 3073 3071 3070 3069 3068 3067 3065 3059 3056 3052 3043 3041 3041 3040 3039 3038
3128 3126 3123 3119 3116 3112 3110 3106 3102 3098 3095 3092 3090 3088 3085 3084 3083 3083 3083 3085 3086 3085 3083 3082 3081 3081 3079 3078 3076 3073 3070 3069 3066 3065 3064 3064 3063 3060 3057 3054 3047 3039 3038 3039 3038 3037 3035
3123 3121 3119 3116 3113 3109 3106 3104 3101 3097 3093 3091 3088 3086 3084 3082 3082 3081 3081 3081 3081 3081 3081 3080 3079 3078 3078 3077 3076 3074 3072 3067 3064 3061 3059 3059 3058 3059 3053 3051 3041 3033 3033 3034 3035 3034 3031
3116 3115 3114 3112 3109 3106 3103 3100 3098 3096 3092 3088 3086 3084 3082 3080 3079 3078 3077 3076 3076 3077 3076 3076 3076 3075 3075 3074 3073 3071 3068 3066 3064 3060 3057 3056 3054 3052 3051 3047 3035 3030 3031 3030 3032 3033 3027
3109 3108 3107 3106 3105 3102 3100 3096 3093 3092 3090 3087 3083 3081 3080 3077 3076 3074 3073 3073 3072 3072 3072 3072 3073 3069 3069 3069 3068 3067 3064 3061 3059 3058 3057 3054 3052 3048 3046 3043 3036 3031 3030 3031 3029 3025 3024
3100 3101 3100 3099 3099 3097 3096 3093 3089 3086 3085 3084 3080 3077 3075 3074 3073 3071 3069 3068 3068 3067 3067 3066 3067 3066 3065 3064 3063 3060 3059 3057 3055 3053 3050 3049 3048 3046 3044 3037 3033 3030 3027 3025 3022 3019 3017